{"data":{"norad_id":39484,"epoch":"2026-09-20T03:51:42.714720Z","epoch_age_seconds":66395,"freshness":"FRESH","line1":"1 39484U 13076B   26263.16091105  .00000036  00000+0  18658-3 0  9996","line2":"2 39484  82.4845 110.9338 0020323 249.3138 110.5763 12.42882503577744","mean_motion":12.42882503,"eccentricity":0.0020323,"inclination_deg":82.4845,"raan_deg":110.9338,"arg_perigee_deg":249.3138,"mean_anomaly_deg":110.5763,"bstar":0.00018658,"rev_number":57774,"period_min":115.85970488153,"perigee_km":1478.4081462904,"apogee_km":1510.4068907404,"semimajor_km":7872.5445185154,"source":"CELESTRAK","updated_at":"2026-09-20T09:00:13.961713Z"}}